Dansville, NY

3:42 AM EDT on August 22, 2019 (GMT -0400)
Dansville Municipal

Weather History for KDSV - July, 2019

Change the Weather History Date:

Monday, July 22, 2019

  Actual Average Record
Temperature  
Mean Temperature 65 °F -  
Max Temperature 66 °F 82 °F 100 °F (1955)
Min Temperature 64 °F 56 °F 45 °F (1965)
Growing Degree Days 15 (Base 50)    
Moisture  
Dew Point 63 °F    
Average Humidity 93    
Maximum Humidity 97    
Minimum Humidity 84    
Precipitation  
Precipitation 0.67 in - - ()
Sea Level Pressure  
Sea Level Pressure 29.91 in    
Wind  
Wind Speed 3 mph (NW)    
Max Wind Speed 9 mph    
Max Gust Speed -    
Visibility 7 miles    
Events Rain    
Averages and records for this station are not official NWS values.
T = Trace of Precipitation, MM = Missing Value Source: NWS Daily Summary

Daily Weather History Graph

Daily Weather History Graph

Search for Another Location

Airport or City:

Astronomy

Jul. 22, 2019 Rise Set
Actual Time 5:52 AM EDT 8:41 PM EDT
Civil Twilight 5:19 AM EDT 9:14 PM EDT
Nautical Twilight 4:37 AM EDT 9:55 PM EDT
Astronomical Twilight 3:49 AM EDT 10:43 PM EDT
Moon 11:54 PM EDT 11:13 AM EDT
Length of Visible Light 15h 54m
Length of Day
14h 48m
Waning Gibbous, 72% of the Moon is Illuminated
Jul 22
Waning Gibbous
Jul 24
Last Quarter
Jul 31
New
Aug 7
First Quarter
Aug 15
Full

Hourly Weather History & Observations

Time (EDT) Temp. Dew Point Humidity Pressure Visibility Wind Dir Wind Speed Gust Speed Precip Events Conditions
12:54 AM 66.9 °F 63.0 °F 87% 29.95 in 10.0 mi South 4.6 mph - N/A   Clear
1:54 AM 66.0 °F 63.0 °F 90% 29.95 in 10.0 mi SSE 6.9 mph - N/A   Clear
2:54 AM 66.0 °F 62.1 °F 87% 29.94 in 10.0 mi Calm Calm - N/A   Partly Cloudy
3:54 AM 66.9 °F 62.1 °F 84% 29.91 in 10.0 mi Calm Calm - N/A   Partly Cloudy
4:54 AM 66.0 °F 62.1 °F 87% 29.91 in 10.0 mi Calm Calm - N/A   Scattered Clouds
5:54 AM 66.0 °F 63.0 °F 90% 29.93 in 10.0 mi NNW 4.6 mph - N/A   Mostly Cloudy
6:54 AM 66.0 °F 64.0 °F 93% 29.93 in 9.0 mi WNW 3.5 mph - 0.01 in Rain Light Rain
7:25 AM 64.9 °F 64.0 °F 97% 29.93 in 2.0 mi NNW 9.2 mph - 0.06 in Rain Rain
7:31 AM 64.9 °F 64.0 °F 97% 29.93 in 1.8 mi NNW 6.9 mph - 0.12 in Rain Heavy Rain
7:47 AM 64.0 °F 63.0 °F 96% 29.92 in 3.0 mi North 4.6 mph - 0.23 in Rain Rain
7:54 AM 64.9 °F 63.0 °F 93% 29.94 in 5.0 mi Calm Calm - 0.23 in Rain Light Rain
8:07 AM 64.9 °F 63.0 °F 93% 29.93 in 6.0 mi Calm Calm - 0.01 in Rain Light Rain
8:18 AM 64.9 °F 63.0 °F 93% 29.93 in 5.0 mi Calm Calm - 0.01 in Rain Light Rain
8:29 AM 64.9 °F 63.0 °F 93% 29.93 in 3.0 mi Calm Calm - 0.04 in Rain Rain
8:47 AM 64.9 °F 64.0 °F 97% 29.93 in 3.0 mi SE 4.6 mph - 0.08 in Rain Rain
8:54 AM 64.0 °F 63.0 °F 96% 29.95 in 4.0 mi SE 3.5 mph - 0.10 in Rain Rain
9:54 AM 64.9 °F 63.0 °F 93% 29.94 in 5.0 mi Calm Calm - 0.10 in Rain Rain
10:45 AM 64.9 °F 63.0 °F 93% 29.92 in 4.0 mi NNW 4.6 mph - 0.04 in Rain Light Rain
10:54 AM 64.9 °F 64.0 °F 97% 29.94 in 6.0 mi NNW 5.8 mph - 0.05 in Rain Light Rain
11:18 AM 64.9 °F 64.0 °F 97% 29.92 in 4.0 mi North 3.5 mph - 0.01 in Rain Light Rain
11:31 AM 64.9 °F 63.0 °F 93% 29.92 in 4.0 mi NW 3.5 mph - 0.02 in Rain Light Rain
11:38 AM 64.9 °F 63.0 °F 93% 29.92 in 1.8 mi Calm Calm - 0.03 in Rain Rain
11:54 AM 64.9 °F 63.0 °F 93% 29.93 in 4.0 mi West 3.5 mph - 0.04 in Rain Light Rain
12:01 PM 64.9 °F 64.0 °F 97% 29.91 in 6.0 mi WNW 3.5 mph - 0.01 in Rain Light Rain
12:12 PM 64.9 °F 63.0 °F 93% 29.91 in 4.0 mi Calm Calm - 0.01 in Rain Light Rain
12:34 PM 64.9 °F 63.0 °F 93% 29.91 in 4.0 mi South 5.8 mph - 0.02 in Rain Light Rain
12:50 PM 64.4 °F 62.6 °F 94% 29.90 in 9.0 mi South 4.6 mph - 0.02 in Rain Light Rain
12:54 PM 64.9 °F 63.0 °F 93% 29.92 in 8.0 mi South 4.6 mph - 0.02 in Rain Light Rain
1:54 PM 64.0 °F 62.1 °F 93% 29.92 in 4.0 mi South 5.8 mph - 0.05 in Rain Light Rain
2:54 PM 66.0 °F 62.1 °F 87% 29.91 in 10.0 mi Calm Calm - 0.04 in Rain Light Rain
3:54 PM 66.0 °F 63.0 °F 90% 29.88 in 8.0 mi NNW 3.5 mph - 0.03 in Rain Light Rain
4:17 PM 66.0 °F 64.0 °F 93% 29.86 in 10.0 mi NW 3.5 mph - 0.00 in   Overcast
4:27 PM 66.0 °F 63.0 °F 90% 29.86 in 10.0 mi NW 4.6 mph - 0.00 in   Overcast
4:54 PM 66.9 °F 64.0 °F 90% 29.87 in 10.0 mi North 5.8 mph - 0.00 in   Overcast
5:41 PM 66.0 °F 64.0 °F 93% 29.86 in 9.0 mi NNW 5.8 mph - N/A   Overcast
5:54 PM 64.9 °F 64.0 °F 97% 29.87 in 10.0 mi Variable 3.5 mph - N/A   Overcast
6:24 PM 66.0 °F 64.0 °F 93% 29.86 in 10.0 mi Variable 3.5 mph - N/A   Overcast
6:54 PM 66.0 °F 63.0 °F 90% 29.88 in 10.0 mi Calm Calm - N/A   Overcast
7:54 PM 66.9 °F 63.0 °F 87% 29.89 in 10.0 mi Calm Calm - N/A   Mostly Cloudy
8:54 PM 64.9 °F 64.0 °F 97% 29.91 in 10.0 mi Calm Calm - N/A   Partly Cloudy
9:54 PM 64.0 °F 63.0 °F 96% 29.91 in 10.0 mi Calm Calm - N/A   Partly Cloudy
10:54 PM 64.0 °F 63.0 °F 96% 29.91 in 10.0 mi Calm Calm - N/A   Overcast
11:01 PM 64.0 °F 63.0 °F 96% 29.89 in 10.0 mi Calm Calm - N/A   Overcast
11:07 PM 64.9 °F 63.0 °F 93% 29.88 in 10.0 mi Calm Calm - N/A   Overcast
11:28 PM 64.9 °F 63.0 °F 93% 29.89 in 10.0 mi Calm Calm - N/A   Overcast
11:50 PM 64.4 °F 62.6 °F 94% 29.89 in 10.0 mi Calm Calm - N/A   Overcast
11:54 PM 64.9 °F 63.0 °F 93% 29.91 in 10.0 mi Calm Calm - N/A   Overcast